Location: La Comballaz
(46.3780°N, 7.0817°E)
Time: 19:16:43
(UTC+00:00)

N. Korean satellite - Pass Details

Date: 12 December 2021
Orbit: 446 x 492 km, 97.3° (Epoch: 18 January)

Event Time Altitude Azimuth Distance (km) Brightness Sun altitude
Rises 16:13:41 0° 180° (S) 2,498 10.6 -5.1°
Reaches altitude 10° 16:15:48 10° 187° (S) 1,618 9.7 -5.4°
Maximum altitude 16:19:08 45° 261° (W) 644 7.8 -5.9°
Drops below altitude 10° 16:22:28 10° 335° (NNW) 1,608 9.2 -6.4°
Sets 16:24:33 0° 342° (NNW) 2,480 10.1 -6.7°
